Flag for Portugal Weather past 2 weeks in Funchal, Madeira, Portugal

Now
72 °F

Passing clouds.


Feels Like: 74 °F
Forecast: 74 / 82 °F
Wind: 6 mph from East

Location: Aeroporto Da Madeira

Current Time: Aug 4, 2015 at 4:33:21 AM

Latest Report: Aug 4, 2015 at 4:00 AM


Visibility: N/A

Pressure: 30.12 "Hg

Humidity: 73%

Dew point: 63 °F

Location of FunchalLocation

Historic Weather in Funchal — Graph

°F

Funchal temperature yesterday

Maximum temperature yesterday: 79 °F (at 2:00 PM)
Minimum temperature yesterday: 68 °F (at 5:30 AM)
Average temperature yesterday: 73 °F

Past Weeks' High & Low Weather Summary

 TemperatureHumidityPressure
High84 °F (Jul 24, 1:30 PM)88% (Jul 28, 9:00 PM)30.18 "Hg (Jul 28, 9:00 PM)
Low68 °F (Aug 2, 6:30 AM)48% (Aug 1, 2:00 PM)29.98 "Hg (Jul 31, 6:00 AM)
Average76 °F66%30.10 "Hg
* Reported Jul 20 3:00 AM — Aug 4 3:30 AM, Funchal, Weather by CustomWeather, © 2015

Note: Actual official high and low records may vary slightly from our data, if they occured in-between our weather recording intervals... More about our weather records

Advertising

Funchal weather history for previous 24 hours

 ConditionsComfort  
Time TempWeatherWind HumidityBarometerVisibility
3:30 AM
Tue, Aug 4
73 °FPassing clouds.5 mph65%30.15 "HgN/A
3:00 AM72 °FPassing clouds.3 mph73%30.15 "HgN/A
2:30 AM73 °FPassing clouds.5 mph69%30.15 "HgN/A
2:00 AM73 °FPassing clouds.2 mph69%30.15 "HgN/A
1:30 AM72 °FPassing clouds.3 mph73%30.15 "HgN/A
1:00 AM73 °FPassing clouds.3 mph69%30.15 "HgN/A
12:30 AM73 °FPassing clouds.3 mph69%30.15 "HgN/A
12:00 AM73 °FPassing clouds.6 mph74%30.15 "HgN/A
11:30 PM
Mon, Aug 3
73 °FPassing clouds.3 mph74%30.18 "HgN/A
11:00 PM73 °FPassing clouds.3 mph74%30.18 "HgN/A
10:30 PM73 °FPassing clouds.6 mph74%30.15 "HgN/A
10:00 PM73 °FPassing clouds.3 mph69%30.15 "HgN/A
9:30 PM73 °FPassing clouds.3 mph74%30.15 "HgN/A
9:00 PM73 °FPassing clouds.2 mph69%30.15 "HgN/A
8:30 PM75 °FPassing clouds.3 mph65%30.12 "HgN/A
8:00 PM75 °FPassing clouds.3 mph65%30.12 "HgN/A
7:30 PM75 °FPassing clouds.3 mph65%30.12 "HgN/A
7:00 PM77 °FPassing clouds.3 mph61%30.12 "HgN/A
6:30 PM75 °FPassing clouds.5 mph65%30.12 "HgN/A
6:00 PM75 °FPassing clouds.5 mph65%30.15 "HgN/A
5:30 PM77 °FPassing clouds.6 mph61%30.15 "HgN/A
5:00 PM77 °FPassing clouds.6 mph61%30.15 "HgN/A
4:30 PM79 °FPassing clouds.6 mph58%30.15 "HgN/A
4:00 PM77 °FPassing clouds.6 mph61%30.15 "HgN/A
3:30 PM79 °FPassing clouds.6 mph58%30.15 "HgN/A
3:00 PM77 °FPassing clouds.7 mph61%30.15 "HgN/A
2:30 PM79 °FScattered clouds.7 mph58%30.15 "HgN/A
2:00 PM79 °FPassing clouds.7 mph54%30.15 "HgN/A
1:30 PM77 °FPassing clouds.7 mph61%30.15 "HgN/A
1:00 PM77 °FPassing clouds.7 mph61%30.15 "HgN/A
12:30 PM77 °FPassing clouds.7 mph57%30.15 "HgN/A
12:00 PM77 °FPassing clouds.8 mph57%30.15 "HgN/A
11:30 AM77 °FPassing clouds.8 mph57%30.15 "HgN/A
11:00 AM77 °FPassing clouds.7 mph57%30.12 "HgN/A
10:30 AM77 °FPassing clouds.7 mph54%30.12 "HgN/A
10:00 AM75 °FPassing clouds.10 mph57%30.12 "HgN/A
9:30 AM73 °FPassing clouds.3 mph61%30.12 "HgN/A
9:00 AM73 °FPassing clouds.3 mph61%30.12 "HgN/A
8:30 AM72 °FPassing clouds.2 mph65%30.09 "HgN/A
8:00 AM68 °FPassing clouds.6 mph69%30.09 "HgN/A
7:30 AM68 °FPassing clouds.7 mph73%30.09 "HgN/A
7:00 AM68 °FPassing clouds.6 mph73%30.09 "HgN/A
6:30 AM68 °FPassing clouds.7 mph73%30.09 "HgN/A
6:00 AM68 °FPassing clouds.6 mph73%30.09 "HgN/A
5:30 AM68 °FPassing clouds.5 mph73%30.09 "HgN/A
5:00 AM70 °FPassing clouds.6 mph64%30.09 "HgN/A
4:30 AM70 °FPassing clouds.6 mph69%30.09 "HgN/A
4:00 AM70 °FPassing clouds.7 mph64%30.09 "HgN/A
Weather by CustomWeather, © 2015

See weather overviewHow to use our weather pages